Tracking 29892 objects as of 21-Nov-2024
HD Live streaming from Space Station
objects crossing your sky now

COSMOS 1818 COOLANT

Track COSMOS 1818 COOLANT now!
10-day predictions


NORAD ID: 36949
Int'l Code: 1987-011AD
Perigee: 756.7 km
Apogee: 785.8 km
Inclination: 65.0 °
Period: 100.1 minutes
Semi major axis: 7142 km
RCS: 0.003 m2 (small)
Launch date: February 1, 1987
Source: Commonwealth of Independent States (former USSR) (CIS)
Launch site: TYURATAM MISSILE AND SPACE COMPLEX (TTMTR)

Note: This is SATELLITE DEBRIS
Your satellite tracking list
Your tracking list is empty




NASA's NSSDC Master Catalog

Two Line Element Set (TLE):
1 36949U 87011AD  24323.42580435  .00001844  00000-0  63627-3 0  9997
2 36949  65.0142  13.4818 0020383 254.1444 105.7397 14.38303611261052
Source of the keplerian elements: AFSPC